Ana Sayfa
METAR-TAF:

METAR-TAF

Havaalanları :

Hondo, Teksas, Amerika Birleşik Devletleri

Enlem: 29-21-34N, Boylam: 099-10-27W, yükseklik: 283 m

Güncel hava durumu gözlemi

Rapor saat 22:51 UTC de 47 dakika önce yapıldı.
Rüzgar güney/güneydoğudan 6 kt
Sıcaklık 25°C
Nem 32%
Basınç 1014 hPa
Görüş mesafesi: 16.1 km
Açık gökyüzü

METAR: KHDO 262251Z AUTO 16006KT 10SM CLR 25/07 A2993 RMK AO2 SLP124 T02500067

Saat: 17:38 (23:38 UTC)


TAF: eksik

4.000'den fazla havaalanı için hava durumu gözlemleri ve tahminleri (METAR ve TAF raporları).

Kullanılabilir istasyonlar harita üzerinde sarı ve kırmızı noktalarla gösterilir.

İstasyonun adını görmek için fareyi noktanın üzerinde gezdirin.

Sonrasında hava gözlem ve tahminlerini görmek için tıklayın.

Haritayı değiştirmek için: yaklaştırmak için siyah artı işaretli yeşil düğmeye ve uzaklaştırmak için de eksi işaretli düğmeye hızla tıklayın; bitişik haritalar için yeşil okları kullanın.


METAR-TAF: